Location: Shenandoah County Park
(38.9356°N, 78.4524°W)
Time: 01:08:12
(UTC-04:00)

Vanguard 1 - Pass Details

Date: 01 February 2023
Orbit: 649 x 3831 km, 34.3° (Epoch: 22 September)

Event Time Altitude Azimuth Distance (km) Brightness Sun altitude
Exits shadow 05:23:07 20° 222° (SW) 2,500 11.8 -23.0°
Maximum altitude 05:28:34 51° 154° (SSE) 1,954 11.7 -21.9°
Drops below altitude 10° 05:41:40 10° 85° (E) 5,306 15.0 -19.4°
Sets 05:47:02 0° 81° (E) 6,820 15.8 -18.4°
